This is the latest recevied weather packets stored in our database for station/object W8LMG. If no packets are shown the sender has not sent any weather packets the latest 10 day(s).
| Time | Temp. | Humidity | Pressure | Rain* | Wind** | Luminosity | Snow |
|---|---|---|---|---|---|---|---|
| 1777601929 | 6.67° C | 77% | 1015.9 hPa | 0 mm | - | 0 W/m² | - |
| 1777601628 | 7.22° C | 74% | 1015.7 hPa | 0 mm | - | 0 W/m² | - |
| 1777601325 | 7.22° C | 74% | 1015.7 hPa | 0 mm | - | 0 W/m² | - |
| 1777601021 | 7.78° C | 72% | 1015.7 hPa | 0 mm | - | 0 W/m² | - |
| 1777600718 | 7.78° C | 71% | 1015.8 hPa | 0 mm | - | 0 W/m² | - |
| 1777600414 | 7.78° C | 73% | 1015.7 hPa | 0 mm | - | 0 W/m² | - |
| 1777600110 | 7.22° C | 73% | 1015.6 hPa | 0 mm | - | 0 W/m² | - |
| 1777599806 | 7.22° C | 74% | 1015.4 hPa | 0 mm | - | 0 W/m² | - |
| 1777599501 | 7.78° C | 72% | 1015.3 hPa | 0 mm | - | 0 W/m² | - |
| 1777599199 | 7.78° C | 69% | 1015.4 hPa | 0 mm | - | 0 W/m² | - |
| 1777598895 | 7.78° C | 68% | 1015.1 hPa | 0 mm | - | 0 W/m² | - |
| 1777598592 | 7.78° C | 70% | 1015.2 hPa | 0 mm | - | 0 W/m² | - |
| 1777598288 | 8.33° C | 70% | 1015.3 hPa | 0 mm | - | 0 W/m² | - |
| 1777597986 | 8.33° C | 69% | 1015.1 hPa | 0 mm | - | 0 W/m² | - |
| 1777597685 | 8.33° C | 69% | 1015 hPa | 0 mm | - | 0 W/m² | - |
| 1777597381 | 8.89° C | 68% | 1014.9 hPa | 0 mm | - | 0 W/m² | - |
| 1777597076 | 8.89° C | 67% | 1014.9 hPa | 0 mm | - | 0 W/m² | - |
| 1777596773 | 8.89° C | 63% | 1014.9 hPa | 0 mm | - | 0 W/m² | - |
| 1777596469 | 8.89° C | 67% | 1014.6 hPa | 0 mm | - | 0 W/m² | - |
| 1777596167 | 9.44° C | 68% | 1014.5 hPa | 0 mm | - | 0 W/m² | - |
| 1777595863 | 9.44° C | 67% | 1014.7 hPa | 0 mm | - | 0 W/m² | - |
| 1777595558 | 9.44° C | 67% | 1014.4 hPa | 0 mm | - | 0 W/m² | - |
| 1777595255 | 9.44° C | 67% | 1014.5 hPa | 0 mm | - | 0 W/m² | - |
| 1777594951 | 9.44° C | 65% | 1014.6 hPa | 0 mm | - | 0 W/m² | - |
| 1777594647 | 9.44° C | 65% | 1014.3 hPa | 0 mm | - | 1 W/m² | - |
* Rain latest hour (hover to see other rain measurements)
** Current wind speed in m/s (hover to see current wind gust speed)